Regional Weather Roundup
Issued by NWS

Home | Current Version | Previous Version | Text Only | Print | Product List | Glossary Off
Versions: 1 2 3 4 5 6 7 8 9 10 11 12 13 14 15 16 17 18 19 20 21 22 23 24 25 26 27 28 29 30 31 32 33 34 35 36 37 38 39 40 41 42 43 44 45 46 47 48 49 50

540
ASUS45 KCYS 200910
RWRWY

WYOMING REGIONAL WEATHER ROUNDUP
NATIONAL WEATHER SERVICE CHEYENNE WY
200 AM MST FRI JAN 20 2017

NOTE:  "FAIR" INDICATES FEW OR NO CLOUDS BELOW 12,000 FEET
WITH NO SIGNIFICANT WEATHER AND/OR OBSTRUCTIONS TO VISIBILITY.

WYZ001-201000-
YELLOWSTONE NATIONAL PARK

CITY           SKY/WX    TMP DP  RH WIND       PRES   REMARKS
LK YELLOWSTONE   N/A     21  19  92 CALM      29.57F
W YELLOWSTONE  NOT AVBL

$$
WYZ002>013-054>058-071-098>099-201000-
NORTHERN WYOMING

CITY           SKY/WX    TMP DP  RH WIND       PRES   REMARKS
JACKSON        CLOUDY    25  23  93 S12       29.57S WCI  14
CODY           FAIR      29  24  82 E5        29.51R WCI  24
GREYBULL       CLOUDY    22  18  85 NW8       29.52R WCI  12
WORLAND        CLOUDY    26  23  88 S6        29.51S WCI  19
SHERIDAN       CLOUDY    36  28  73 NW13      29.49R WCI  27
BUFFALO        CLOUDY    36  25  64 N10       29.47S WCI  28
GILLETTE       FAIR      28  22  78 CALM      29.45S
HULETT         FAIR      27  21  80 SW5       29.45S WCI  21
NEWCASTLE      FAIR      23  18  80 CALM      29.44S

$$
WYZ014>020-022>026-101>103-201000-
CENTRAL WYOMING

CITY           SKY/WX    TMP DP  RH WIND       PRES   REMARKS
BIG PINEY      MOCLDY     8   7  95 W5        29.59S WCI   0
PINEDALE       CLOUDY    10   9  92 NW6       29.58F WCI   1
DUBOIS         NOT AVBL
LANDER         MOCLDY    21  14  74 CALM      29.50F
RIVERTON       CLOUDY    18  14  84 W3        29.52S
CASPER         CLOUDY    30  28  92 SW8       29.50F WCI  22
DOUGLAS        FAIR      33  24  69 NW12      29.47F WCI  24

$$
WYZ021-027>030-104>119-201000-
SOUTHERN WYOMING

CITY           SKY/WX    TMP DP  RH WIND       PRES   REMARKS
EVANSTON       FOG       22  19  89 W9        29.58F VSB 1/4 WCI  12
ROCK SPRINGS   CLOUDY    24  22  91 W9        29.57F WCI  14
RAWLINS        CLOUDY    27  22  81 SW13      29.55F WCI  16
LARAMIE        FAIR      23  16  74 CALM      29.50S
CHEYENNE       FAIR      36  20  52 W15       29.47S WCI  27
TORRINGTON     FAIR      29  22  75 NW6       29.46S WCI  23

$$




USA.gov is the U.S. government's official web portal to all federal, state and local government web resources and services.